User: anonymous   Login
Location: Asheville, NC
(35.6000°N, 82.5500°W)
Time: 16:42:14
(UTC-05:00)
Language:

LilacSat-2 - Orbit

View from above orbital plane
View from above orbital plane
View from above satellite
View from above satellite

Ground track
Ground track

The orbit data is extracted from the following two-line orbital elements,

1 40908U 15049K   18019.51614901  .00000326  00000-0  21859-4 0  9996
2 40908  97.4658  25.0362 0016097 177.7746 182.3560 15.13385347128884
Epoch (UTC): 19 January 2018 12:23:15
Eccentricity: 0.0016097
inclination: 97.4658°
perigee height: 515 km
apogee height: 537 km
right ascension of ascending node: 25.0362°
argument of perigee: 177.7746°
revolutions per day: 15.13385347
mean anomaly at epoch: 182.3560°
orbit number at epoch: 12888

The dashed part of the orbit path shows where the satellite is in the earth's shadow,  

DLR